QPF
0.00 0.00 0.00 0.00 0.00 0.00 0.00 0.00 0.00 0.00 0.00 0.00 0.00 0.00 0.00 0.00 0.01 0.06 0.02 0.00 0.00 0.00 0.00 0.00 0.00 0.00 0.00 0.00 0.00 0.01 0.02 0.05 0.05 0.04 0.03 0.02 0.01 0.01 0.01 0.01 0.01 0.03 0.04 0.03 0.03 0.03 0.03 0.04 0.03
0.00 0.00 0.00 0.00 0.00 0.00 0.00 0.00 0.00 0.01 0.02 0.01 0.00 0.00 0.00 0.00 0.00 0.00 0.00 0.00 0.00 0.01 0.00 0.00 0.00 0.00 0.01 0.00 0.00 0.01 0.03 0.05 0.07 0.08 0.07 0.05 0.02 0.01 0.01 0.01 0.01 0.01 0.02 0.01 0.01 0.01 0.02 0.02 0.01
0.00 0.00 0.00 0.00 0.00 0.00 0.00 0.00 0.00 0.01 0.00 0.00 0.00 0.00 0.00 0.00 0.00 0.00 0.00 0.00 0.00 0.01 0.00 0.00 0.00 0.00 0.01 0.01 0.01 0.01 0.02 0.04 0.05 0.07 0.08 0.06 0.02 0.01 0.01 0.01 0.00 0.00 0.01 0.01 0.01 0.01 0.01 0.01 0.00
0.00 0.00 0.00 0.00 0.00 0.00 0.00 0.00 0.00 0.00 0.00 0.00 0.00 0.00 0.00 0.00 0.00 0.00 0.00 0.00 0.00 0.00 0.00 0.00 0.00 0.00 0.01 0.03 0.03 0.03 0.04 0.04 0.03 0.03 0.05 0.04 0.01 0.01 0.01 0.01 0.01 0.02 0.02 0.03 0.04 0.03 0.02 0.01 0.00
0.00 0.00 0.00 0.00 0.00 0.00 0.00 0.00 0.00 0.00 0.00 0.00 0.00 0.00 0.00 0.00 0.00 0.00 0.00 0.00 0.00 0.00 0.00 0.00 0.00 0.00 0.00 0.01 0.02 0.03 0.05 0.05 0.05 0.04 0.03 0.02 0.01 0.00 0.01 0.01 0.02 0.03 0.04 0.03 0.02 0.01 0.01 0.01 0.01
0.00 0.00 0.00 0.00 0.00 0.00 0.00 0.00 0.00 0.00 0.00 0.00 0.00 0.00 0.00 0.00 0.00 0.00 0.00 0.00 0.00 0.00 0.00 0.00 0.00 0.00 0.02 0.05 0.03 0.02 0.03 0.03 0.03 0.03 0.02 0.02 0.01 0.01 0.01 0.02 0.04 0.05 0.03 0.01 0.01 0.00 0.00 0.01 0.01
0.00 0.00 0.00 0.00 0.00 0.00 0.00 0.00 0.00 0.00 0.00 0.00 0.00 0.00 0.00 0.00 0.00 0.00 0.00 0.00 0.00 0.01 0.00 0.00 0.00 0.00 0.01 0.01 0.00 0.00 0.00 0.00 0.01 0.01 0.01 0.02 0.03 0.04 0.04 0.04 0.04 0.03 0.01 0.01 0.01 0.00 0.00 0.01 0.01
0.00 0.00 0.00 0.00 0.00 0.00 0.00 0.00 0.00 0.00 0.00 0.00 0.00 0.00 0.01 0.00 0.00 0.00 0.00 0.00 0.01 0.09 0.16 0.05 0.03 0.01 0.00 0.00 0.00 0.00 0.00 0.00 0.00 0.00 0.00 0.01 0.02 0.04 0.04 0.03 0.01 0.01 0.01 0.01 0.01 0.01 0.01 0.01 0.01
0.00 0.00 0.00 0.00 0.00 0.00 0.00 0.00 0.00 0.00 0.00 0.00 0.00 0.00 0.01 0.00 0.00 0.00 0.01 0.03 0.03 0.13 0.26 0.11 0.05 0.01 0.00 0.00 0.00 0.00 0.00 0.00 0.00 0.00 0.00 0.02 0.06 0.06 0.05 0.01 0.00 0.00 0.00 0.00 0.00 0.00 0.00 0.00 0.00
0.00 0.00 0.00 0.00 0.00 0.00 0.00 0.00 0.00 0.00 0.00 0.00 0.00 0.00 0.00 0.00 0.00 0.00 0.08 0.37 0.27 0.17 0.18 0.17 0.02 0.00 0.00 0.00 0.00 0.01 0.01 0.00 0.01 0.01 0.01 0.04 0.05 0.05 0.03 0.00 0.00 0.00 0.00 0.00 0.00 0.00 0.00 0.00 0.00
0.00 0.00 0.00 0.00 0.00 0.00 0.00 0.00 0.00 0.00 0.00 0.00 0.00 0.00 0.01 0.02 0.00 0.00 0.06 0.37 0.40 0.16 0.07 0.03 0.00 0.00 0.00 0.00 0.00 0.01 0.00 0.00 0.01 0.01 0.01 0.02 0.01 0.01 0.00 0.00 0.00 0.00 0.00 0.00 0.00 0.00 0.00 0.00 0.00
0.00 0.00 0.00 0.00 0.00 0.00 0.00 0.00 0.00 0.00 0.00 0.00 0.00 0.00 0.00 0.00 0.00 0.00 0.02 0.03 0.03 0.01 0.00 0.00 0.00 0.00 0.00 0.00 0.00 0.00 0.00 0.00 0.00 0.00 0.00 0.00 0.01 0.00 0.00 0.00 0.00 0.00 0.00 0.00 0.00 0.00 0.00 0.00 0.00
0.00 0.00 0.00 0.00 0.00 0.00 0.00 0.00 0.00 0.00 0.00 0.00 0.00 0.00 0.00 0.00 0.00 0.00 0.01 0.01 0.00 0.00 0.00 0.00 0.00 0.00 0.00 0.00 0.00 0.00 0.00 0.00 0.00 0.00 0.00 0.00 0.00 0.00 0.00 0.00 0.00 0.00 0.00 0.00 0.00 0.00 0.00 0.00 0.00
0.00 0.00 0.00 0.00 0.00 0.00 0.00 0.00 0.00 0.00 0.00 0.00 0.00 0.00 0.00 0.00 0.00 0.01 0.01 0.00 0.00 0.00 0.00 0.00 0.00 0.00 0.00 0.00 0.00 0.00 0.00 0.00 0.00 0.00 0.00 0.00 0.00 0.00 0.00 0.00 0.00 0.00 0.00 0.00 0.00 0.00 0.00 0.00 0.00
0.00 0.00 0.00 0.00 0.00 0.00 0.00 0.00 0.00 0.00 0.00 0.00 0.00 0.00 0.00 0.00 0.01 0.01 0.01 0.01 0.02 0.02 0.01 0.00 0.00 0.00 0.00 0.00 0.00 0.00 0.00 0.00 0.00 0.00 0.00 0.00 0.00 0.00 0.00 0.00 0.00 0.00 0.00 0.00 0.00 0.00 0.00 0.00 0.00
0.00 0.00 0.00 0.00 0.00 0.00 0.00 0.00 0.00 0.00 0.00 0.00 0.00 0.00 0.00 0.00 0.00 0.00 0.01 0.06 0.16 0.23 0.19 0.05 0.01 0.00 0.00 0.00 0.00 0.00 0.00 0.00 0.00 0.00 0.00 0.00 0.00 0.00 0.00 0.00 0.00 0.00 0.00 0.00 0.00 0.00 0.00 0.00 0.00
0.00 0.00 0.00 0.00 0.00 0.00 0.00 0.00 0.00 0.00 0.00 0.00 0.00 0.00 0.00 0.00 0.00 0.01 0.04 0.13 0.36 0.72 0.59 0.17 0.04 0.01 0.00 0.00 0.00 0.00 0.00 0.00 0.00 0.00 0.00 0.00 0.00 0.00 0.00 0.00 0.00 0.00 0.00 0.00 0.00 0.00 0.00 0.00 0.00
0.00 0.00 0.00 0.00 0.00 0.00 0.00 0.00 0.00 0.00 0.00 0.00 0.00 0.00 0.00 0.00 0.01 0.02 0.10 0.25 0.65 1.24 0.92 0.37 0.18 0.07 0.02 0.01 0.01 0.01 0.00 0.00 0.00 0.00 0.00 0.00 0.00 0.00 0.00 0.00 0.01 0.01 0.01 0.01 0.02 0.01 0.01 0.01 0.00
0.00 0.00 0.00 0.00 0.00 0.00 0.00 0.00 0.00 0.00 0.00 0.00 0.00 0.00 0.00 0.00 0.02 0.04 0.10 0.16 0.29 0.46 0.43 0.33 0.20 0.11 0.06 0.04 0.03 0.02 0.01 0.00 0.00 0.00 0.00 0.00 0.00 0.01 0.01 0.00 0.02 0.02 0.03 0.02 0.01 0.01 0.01 0.01 0.00
0.00 0.00 0.00 0.00 0.00 0.00 0.00 0.00 0.00 0.00 0.00 0.00 0.00 0.00 0.00 0.00 0.01 0.01 0.02 0.04 0.07 0.13 0.19 0.20 0.16 0.13 0.07 0.06 0.05 0.05 0.02 0.01 0.01 0.02 0.04 0.02 0.01 0.01 0.01 0.02 0.01 0.01 0.01 0.01 0.01 0.01 0.01 0.00 0.00
0.00 0.00 0.00 0.00 0.00 0.00 0.00 0.00 0.00 0.00 0.00 0.00 0.00 0.00 0.00 0.00 0.00 0.00 0.00 0.00 0.01 0.04 0.07 0.09 0.10 0.11 0.08 0.08 0.07 0.07 0.07 0.06 0.06 0.08 0.11 0.08 0.05 0.03 0.01 0.01 0.00 0.00 0.00 0.00 0.01 0.01 0.01 0.01 0.00
0.00 0.00 0.00 0.00 0.00 0.00 0.00 0.00 0.00 0.00 0.00 0.00 0.00 0.00 0.00 0.00 0.00 0.00 0.00 0.00 0.00 0.01 0.02 0.05 0.07 0.08 0.08 0.08 0.09 0.09 0.11 0.13 0.13 0.09 0.10 0.07 0.03 0.01 0.00 0.00 0.00 0.00 0.00 0.00 0.00 0.00 0.01 0.01 0.00
0.00 0.00 0.00 0.00 0.00 0.00 0.00 0.00 0.00 0.00 0.00 0.00 0.00 0.00 0.00 0.00 0.00 0.00 0.00 0.00 0.00 0.00 0.01 0.03 0.03 0.04 0.04 0.04 0.04 0.05 0.06 0.05 0.03 0.02 0.02 0.01 0.00 0.00 0.00 0.00 0.00 0.00 0.00 0.00 0.00 0.00 0.00 0.00 0.00
0.00 0.00 0.00 0.00 0.00 0.00 0.00 0.00 0.00 0.00 0.00 0.00 0.00 0.00 0.00 0.00 0.00 0.00 0.00 0.00 0.00 0.00 0.01 0.01 0.01 0.02 0.02 0.02 0.02 0.01 0.01 0.01 0.00 0.00 0.00 0.00 0.00 0.00 0.00 0.00 0.00 0.00 0.00 0.00 0.00 0.00 0.00 0.00 0.01
0.00 0.00 0.00 0.00 0.00 0.00 0.00 0.00 0.00 0.00 0.00 0.00 0.00 0.00 0.00 0.00 0.00 0.00 0.00 0.00 0.00 0.00 0.00 0.00 0.00 0.00 0.00 0.00 0.00 0.00 0.00 0.00 0.00 0.00 0.00 0.00 0.00 0.00 0.00 0.00 0.00 0.00 0.00 0.00 0.00 0.01 0.01 0.01 0.02
0.00 0.00 0.00 0.00 0.00 0.00 0.00 0.00 0.00 0.00 0.00 0.00 0.00 0.00 0.00 0.00 0.00 0.00 0.00 0.00 0.00 0.00 0.00 0.00 0.00 0.00 0.00 0.00 0.00 0.00 0.00 0.00 0.00 0.00 0.00 0.00 0.00 0.00 0.00 0.00 0.00 0.00 0.00 0.01 0.01 0.01 0.02 0.02 0.03
0.00 0.00 0.00 0.00 0.00 0.00 0.00 0.00 0.00 0.00 0.00 0.00 0.00 0.00 0.00 0.00 0.00 0.00 0.00 0.00 0.00 0.00 0.00 0.00 0.00 0.00 0.00 0.00 0.00 0.00 0.00 0.00 0.00 0.00 0.01 0.00 0.01 0.00 0.00 0.00 0.01 0.01 0.02 0.02 0.03 0.03 0.03 0.03 0.03
0.00 0.00 0.00 0.00 0.00 0.00 0.00 0.00 0.00 0.00 0.00 0.00 0.00 0.00 0.00 0.00 0.00 0.00 0.00 0.00 0.00 0.00 0.00 0.00 0.00 0.00 0.00 0.00 0.00 0.00 0.00 0.00 0.01 0.01 0.01 0.01 0.01 0.01 0.01 0.02 0.03 0.03 0.03 0.03 0.03 0.04 0.03 0.04 0.04
0.00 0.00 0.00 0.00 0.00 0.00 0.00 0.00 0.00 0.00 0.00 0.00 0.00 0.00 0.00 0.00 0.00 0.00 0.00 0.00 0.00 0.00 0.00 0.00 0.00 0.00 0.00 0.00 0.00 0.00 0.00 0.01 0.01 0.01 0.01 0.02 0.02 0.02 0.03 0.03 0.03 0.03 0.02 0.03 0.03 0.03 0.03 0.03 0.03
0.00 0.00 0.00 0.00 0.00 0.00 0.00 0.00 0.00 0.00 0.01 0.01 0.00 0.00 0.00 0.00 0.00 0.00 0.00 0.00 0.00 0.00 0.00 0.00 0.00 0.00 0.00 0.00 0.00 0.00 0.01 0.01 0.01 0.02 0.02 0.02 0.03 0.03 0.04 0.03 0.03 0.02 0.02 0.03 0.03 0.03 0.02 0.03 0.02
MSLP
1009.44 1009.86 1010.26 1010.52 1010.54 1010.29 1009.79 1009.14 1008.47 1007.93 1007.64 1007.65 1007.95 1008.47 1009.10 1009.70 1010.18 1010.46 1010.57 1010.57 1010.53 1010.55 1010.69 1010.97 1011.37 1011.82 1012.24 1012.58 1012.80 1012.92 1012.97 1013.02 1013.11 1013.30 1013.57 1013.91 1014.28 1014.61 1014.87 1015.05 1015.14 1015.18 1015.22 1015.27 1015.37 1015.50 1015.63 1015.75 1015.81
1009.75 1010.20 1010.56 1010.72 1010.59 1010.19 1009.54 1008.78 1008.05 1007.50 1007.23 1007.28 1007.63 1008.19 1008.83 1009.44 1009.91 1010.20 1010.33 1010.36 1010.39 1010.48 1010.71 1011.07 1011.53 1012.01 1012.45 1012.79 1013.01 1013.12 1013.16 1013.22 1013.32 1013.52 1013.81 1014.15 1014.49 1014.79 1015.00 1015.11 1015.15 1015.15 1015.16 1015.21 1015.31 1015.45 1015.60 1015.72 1015.78
1010.04 1010.49 1010.78 1010.82 1010.56 1010.02 1009.27 1008.45 1007.70 1007.16 1006.94 1007.04 1007.42 1007.99 1008.62 1009.19 1009.62 1009.87 1009.99 1010.05 1010.12 1010.30 1010.62 1011.06 1011.60 1012.14 1012.62 1012.98 1013.20 1013.32 1013.37 1013.43 1013.55 1013.76 1014.04 1014.36 1014.67 1014.92 1015.07 1015.14 1015.14 1015.12 1015.12 1015.17 1015.29 1015.44 1015.61 1015.73 1015.79
1010.22 1010.63 1010.84 1010.77 1010.39 1009.76 1008.96 1008.14 1007.43 1006.97 1006.82 1006.98 1007.39 1007.95 1008.53 1009.02 1009.36 1009.55 1009.63 1009.69 1009.81 1010.05 1010.46 1010.99 1011.61 1012.22 1012.74 1013.13 1013.38 1013.51 1013.58 1013.65 1013.77 1013.98 1014.24 1014.53 1014.81 1015.01 1015.13 1015.17 1015.15 1015.13 1015.14 1015.22 1015.35 1015.53 1015.70 1015.82 1015.85
1010.23 1010.56 1010.67 1010.50 1010.05 1009.38 1008.60 1007.85 1007.25 1006.92 1006.88 1007.12 1007.56 1008.08 1008.58 1008.97 1009.20 1009.29 1009.31 1009.35 1009.49 1009.79 1010.28 1010.90 1011.59 1012.27 1012.84 1013.27 1013.53 1013.68 1013.75 1013.83 1013.95 1014.14 1014.39 1014.66 1014.90 1015.08 1015.18 1015.20 1015.19 1015.19 1015.24 1015.34 1015.51 1015.69 1015.86 1015.95 1015.95
1010.04 1010.27 1010.27 1010.02 1009.53 1008.89 1008.19 1007.58 1007.15 1006.98 1007.07 1007.40 1007.86 1008.35 1008.76 1009.02 1009.13 1009.11 1009.06 1009.07 1009.22 1009.56 1010.11 1010.80 1011.56 1012.29 1012.90 1013.35 1013.63 1013.79 1013.87 1013.94 1014.06 1014.24 1014.47 1014.71 1014.94 1015.11 1015.21 1015.25 1015.27 1015.30 1015.39 1015.52 1015.71 1015.89 1016.03 1016.09 1016.04
1009.70 1009.80 1009.70 1009.38 1008.89 1008.31 1007.75 1007.31 1007.07 1007.08 1007.32 1007.73 1008.21 1008.65 1008.97 1009.12 1009.10 1008.99 1008.86 1008.84 1008.99 1009.37 1009.96 1010.70 1011.50 1012.26 1012.89 1013.36 1013.65 1013.82 1013.90 1013.97 1014.09 1014.26 1014.47 1014.71 1014.93 1015.10 1015.21 1015.28 1015.34 1015.41 1015.53 1015.69 1015.87 1016.04 1016.15 1016.15 1016.05
1009.29 1009.27 1009.06 1008.69 1008.22 1007.73 1007.31 1007.05 1006.99 1007.17 1007.54 1008.01 1008.49 1008.88 1009.11 1009.16 1009.05 1008.85 1008.68 1008.64 1008.80 1009.20 1009.82 1010.58 1011.40 1012.17 1012.81 1013.28 1013.58 1013.75 1013.84 1013.92 1014.04 1014.21 1014.43 1014.66 1014.88 1015.06 1015.20 1015.29 1015.38 1015.48 1015.61 1015.77 1015.94 1016.08 1016.14 1016.10 1015.94
1008.92 1008.77 1008.47 1008.07 1007.63 1007.23 1006.93 1006.82 1006.91 1007.21 1007.65 1008.14 1008.60 1008.94 1009.09 1009.07 1008.89 1008.67 1008.48 1008.45 1008.63 1009.05 1009.68 1010.45 1011.27 1012.03 1012.66 1013.12 1013.42 1013.59 1013.70 1013.80 1013.93 1014.11 1014.34 1014.59 1014.82 1015.01 1015.15 1015.27 1015.37 1015.47 1015.60 1015.75 1015.89 1015.98 1015.99 1015.90 1015.71
1008.66 1008.41 1008.05 1007.63 1007.21 1006.87 1006.67 1006.65 1006.82 1007.16 1007.62 1008.09 1008.50 1008.77 1008.87 1008.80 1008.61 1008.40 1008.25 1008.25 1008.47 1008.91 1009.55 1010.31 1011.11 1011.84 1012.45 1012.90 1013.19 1013.38 1013.51 1013.64 1013.80 1014.01 1014.26 1014.51 1014.75 1014.95 1015.11 1015.22 1015.31 1015.40 1015.50 1015.61 1015.71 1015.76 1015.73 1015.61 1015.39
1008.57 1008.25 1007.86 1007.43 1007.02 1006.72 1006.55 1006.56 1006.74 1007.06 1007.46 1007.86 1008.19 1008.39 1008.45 1008.38 1008.23 1008.07 1007.99 1008.07 1008.34 1008.82 1009.46 1010.20 1010.96 1011.65 1012.23 1012.66 1012.95 1013.16 1013.32 1013.48 1013.68 1013.92 1014.19 1014.47 1014.72 1014.92 1015.07 1015.16 1015.23 1015.29 1015.35 1015.41 1015.46 1015.47 1015.42 1015.28 1015.07
1008.64 1008.30 1007.88 1007.46 1007.07 1006.77 1006.60 1006.58 1006.69 1006.92 1007.21 1007.49 1007.73 1007.87 1007.91 1007.87 1007.79 1007.74 1007.77 1007.95 1008.31 1008.82 1009.47 1010.18 1010.89 1011.53 1012.06 1012.46 1012.75 1012.98 1013.16 1013.36 1013.60 1013.87 1014.17 1014.46 1014.72 1014.91 1015.05 1015.12 1015.15 1015.17 1015.19 1015.20 1015.21 1015.19 1015.13 1015.00 1014.81
1008.82 1008.49 1008.09 1007.67 1007.29 1006.98 1006.78 1006.68 1006.69 1006.79 1006.93 1007.09 1007.23 1007.32 1007.37 1007.40 1007.43 1007.51 1007.68 1007.98 1008.42 1008.97 1009.62 1010.29 1010.95 1011.52 1012.00 1012.37 1012.65 1012.88 1013.09 1013.31 1013.58 1013.87 1014.19 1014.49 1014.74 1014.93 1015.06 1015.11 1015.11 1015.09 1015.07 1015.05 1015.03 1014.99 1014.93 1014.82 1014.67
1009.05 1008.74 1008.37 1007.98 1007.62 1007.30 1007.05 1006.87 1006.76 1006.71 1006.71 1006.75 1006.80 1006.87 1006.96 1007.08 1007.24 1007.47 1007.80 1008.22 1008.74 1009.33 1009.96 1010.59 1011.18 1011.69 1012.11 1012.43 1012.69 1012.90 1013.11 1013.35 1013.62 1013.92 1014.23 1014.53 1014.78 1014.97 1015.08 1015.12 1015.12 1015.08 1015.03 1014.99 1014.96 1014.92 1014.87 1014.79 1014.67
1009.24 1008.97 1008.64 1008.29 1007.95 1007.63 1007.35 1007.10 1006.89 1006.72 1006.60 1006.55 1006.55 1006.63 1006.78 1007.01 1007.32 1007.71 1008.17 1008.70 1009.29 1009.90 1010.51 1011.09 1011.60 1012.04 1012.39 1012.66 1012.87 1013.06 1013.25 1013.46 1013.71 1013.99 1014.28 1014.57 1014.81 1015.00 1015.12 1015.17 1015.17 1015.14 1015.09 1015.05 1015.01 1014.99 1014.95 1014.89 1014.79
1009.35 1009.10 1008.82 1008.52 1008.23 1007.94 1007.65 1007.36 1007.08 1006.84 1006.66 1006.55 1006.55 1006.67 1006.90 1007.25 1007.70 1008.22 1008.80 1009.42 1010.05 1010.66 1011.23 1011.75 1012.19 1012.55 1012.83 1013.04 1013.20 1013.34 1013.48 1013.65 1013.86 1014.09 1014.35 1014.60 1014.83 1015.02 1015.15 1015.23 1015.26 1015.25 1015.23 1015.20 1015.18 1015.16 1015.12 1015.07 1014.98
1009.34 1009.12 1008.88 1008.65 1008.43 1008.19 1007.92 1007.64 1007.35 1007.09 1006.89 1006.79 1006.82 1007.00 1007.33 1007.79 1008.36 1008.99 1009.66 1010.32 1010.96 1011.55 1012.07 1012.51 1012.88 1013.16 1013.38 1013.53 1013.64 1013.73 1013.82 1013.92 1014.06 1014.23 1014.43 1014.64 1014.85 1015.04 1015.20 1015.31 1015.38 1015.42 1015.44 1015.43 1015.43 1015.40 1015.36 1015.30 1015.18
1009.23 1009.02 1008.85 1008.70 1008.55 1008.39 1008.20 1007.96 1007.71 1007.47 1007.31 1007.25 1007.34 1007.59 1008.02 1008.58 1009.23 1009.94 1010.66 1011.33 1011.95 1012.48 1012.94 1013.31 1013.60 1013.83 1013.99 1014.10 1014.17 1014.21 1014.23 1014.27 1014.33 1014.43 1014.55 1014.72 1014.90 1015.09 1015.26 1015.42 1015.54 1015.63 1015.68 1015.71 1015.71 1015.69 1015.63 1015.52 1015.37
1009.02 1008.85 1008.75 1008.69 1008.66 1008.60 1008.50 1008.34 1008.16 1007.98 1007.87 1007.88 1008.04 1008.38 1008.88 1009.52 1010.24 1010.98 1011.70 1012.35 1012.91 1013.39 1013.77 1014.07 1014.31 1014.49 1014.62 1014.70 1014.74 1014.75 1014.73 1014.71 1014.70 1014.71 1014.77 1014.87 1015.02 1015.19 1015.38 1015.57 1015.73 1015.87 1015.96 1016.01 1016.02 1015.98 1015.89 1015.74 1015.52
1008.76 1008.65 1008.64 1008.70 1008.79 1008.85 1008.85 1008.79 1008.69 1008.59 1008.55 1008.63 1008.86 1009.27 1009.83 1010.51 1011.26 1012.00 1012.70 1013.30 1013.80 1014.19 1014.50 1014.75 1014.94 1015.09 1015.21 1015.30 1015.34 1015.34 1015.30 1015.24 1015.17 1015.11 1015.10 1015.14 1015.23 1015.39 1015.57 1015.77 1015.96 1016.13 1016.25 1016.31 1016.32 1016.26 1016.13 1015.94 1015.66
1008.46 1008.45 1008.56 1008.76 1008.98 1009.17 1009.29 1009.32 1009.30 1009.27 1009.29 1009.42 1009.71 1010.16 1010.76 1011.47 1012.21 1012.93 1013.58 1014.12 1014.55 1014.87 1015.12 1015.31 1015.48 1015.63 1015.77 1015.88 1015.95 1015.97 1015.93 1015.85 1015.74 1015.64 1015.56 1015.53 1015.57 1015.68 1015.84 1016.03 1016.22 1016.39 1016.52 1016.59 1016.58 1016.50 1016.34 1016.11 1015.79
1008.15 1008.28 1008.55 1008.90 1009.26 1009.57 1009.78 1009.90 1009.94 1009.95 1010.01 1010.18 1010.50 1010.98 1011.59 1012.30 1013.03 1013.72 1014.32 1014.80 1015.17 1015.43 1015.63 1015.79 1015.95 1016.12 1016.29 1016.44 1016.56 1016.62 1016.61 1016.53 1016.40 1016.26 1016.12 1016.03 1016.01 1016.05 1016.16 1016.32 1016.48 1016.64 1016.75 1016.80 1016.78 1016.68 1016.50 1016.25 1015.91
1007.86 1008.15 1008.59 1009.09 1009.59 1010.00 1010.30 1010.47 1010.54 1010.58 1010.66 1010.84 1011.17 1011.66 1012.27 1012.97 1013.68 1014.34 1014.91 1015.35 1015.67 1015.90 1016.06 1016.21 1016.38 1016.56 1016.77 1016.98 1017.15 1017.26 1017.28 1017.23 1017.09 1016.92 1016.74 1016.59 1016.49 1016.46 1016.50 1016.59 1016.71 1016.83 1016.91 1016.93 1016.89 1016.78 1016.59 1016.32 1015.99
1007.60 1008.07 1008.67 1009.31 1009.92 1010.41 1010.77 1010.97 1011.06 1011.10 1011.17 1011.35 1011.67 1012.15 1012.76 1013.45 1014.15 1014.81 1015.36 1015.78 1016.09 1016.30 1016.46 1016.61 1016.79 1017.00 1017.24 1017.49 1017.71 1017.86 1017.92 1017.89 1017.75 1017.56 1017.34 1017.13 1016.96 1016.85 1016.81 1016.82 1016.87 1016.92 1016.96 1016.95 1016.89 1016.76 1016.56 1016.30 1015.99
1007.39 1008.01 1008.75 1009.50 1010.19 1010.74 1011.12 1011.33 1011.41 1011.44 1011.50 1011.67 1011.98 1012.45 1013.06 1013.75 1014.47 1015.13 1015.69 1016.13 1016.45 1016.67 1016.85 1017.01 1017.20 1017.44 1017.70 1017.98 1018.22 1018.40 1018.48 1018.46 1018.32 1018.11 1017.85 1017.59 1017.35 1017.16 1017.04 1016.97 1016.94 1016.93 1016.90 1016.85 1016.75 1016.61 1016.41 1016.16 1015.88
1007.23 1007.98 1008.80 1009.62 1010.35 1010.91 1011.29 1011.50 1011.57 1011.59 1011.63 1011.79 1012.10 1012.57 1013.19 1013.90 1014.64 1015.33 1015.93 1016.41 1016.77 1017.04 1017.24 1017.43 1017.64 1017.88 1018.15 1018.42 1018.67 1018.85 1018.93 1018.90 1018.76 1018.53 1018.23 1017.92 1017.63 1017.37 1017.17 1017.03 1016.92 1016.84 1016.76 1016.66 1016.52 1016.34 1016.13 1015.89 1015.62
1007.15 1007.94 1008.79 1009.62 1010.34 1010.89 1011.25 1011.44 1011.51 1011.52 1011.58 1011.74 1012.06 1012.55 1013.19 1013.94 1014.71 1015.45 1016.11 1016.65 1017.07 1017.39 1017.64 1017.85 1018.07 1018.31 1018.57 1018.82 1019.04 1019.20 1019.26 1019.20 1019.04 1018.78 1018.47 1018.12 1017.79 1017.48 1017.23 1017.02 1016.86 1016.71 1016.57 1016.42 1016.23 1016.02 1015.78 1015.52 1015.24
1007.10 1007.87 1008.69 1009.47 1010.14 1010.66 1011.00 1011.18 1011.26 1011.30 1011.38 1011.58 1011.94 1012.46 1013.14 1013.91 1014.73 1015.53 1016.24 1016.85 1017.34 1017.72 1018.02 1018.27 1018.51 1018.73 1018.96 1019.17 1019.34 1019.45 1019.46 1019.37 1019.17 1018.90 1018.56 1018.20 1017.85 1017.52 1017.23 1016.99 1016.79 1016.60 1016.41 1016.20 1015.96 1015.70 1015.41 1015.10 1014.80
1007.07 1007.76 1008.48 1009.16 1009.76 1010.23 1010.55 1010.75 1010.87 1010.97 1011.12 1011.39 1011.80 1012.38 1013.09 1013.91 1014.76 1015.60 1016.37 1017.04 1017.59 1018.03 1018.38 1018.66 1018.90 1019.12 1019.31 1019.47 1019.57 1019.61 1019.57 1019.43 1019.20 1018.90 1018.56 1018.20 1017.85 1017.52 1017.24 1016.99 1016.77 1016.55 1016.33 1016.07 1015.78 1015.45 1015.10 1014.72 1014.35
1007.02 1007.57 1008.16 1008.73 1009.24 1009.66 1009.99 1010.23 1010.43 1010.63 1010.89 1011.26 1011.75 1012.39 1013.15 1013.99 1014.87 1015.73 1016.53 1017.23 1017.83 1018.32 1018.71 1019.02 1019.26 1019.46 1019.61 1019.71 1019.75 1019.72 1019.60 1019.41 1019.15 1018.84 1018.49 1018.15 1017.82 1017.53 1017.27 1017.04 1016.82 1016.60 1016.35 1016.06 1015.72 1015.33 1014.90 1014.44 1013.98
Thickness
5809 5813 5818 5815 5800 5796 5806 5840 5855 5836 5829 5839 5846 5845 5828 5811 5800 5784 5807 5818 5816 5808 5800 5794 5790 5787 5784 5781 5778 5775 5774 5772 5771 5769 5768 5766 5765 5764 5764 5763 5761 5759 5757 5757 5755 5755 5754 5754 5754
5811 5818 5815 5806 5792 5789 5822 5850 5830 5826 5827 5825 5838 5840 5829 5815 5817 5811 5811 5814 5811 5804 5796 5789 5784 5781 5779 5775 5772 5770 5768 5767 5766 5765 5763 5762 5760 5760 5759 5758 5757 5755 5754 5753 5752 5751 5750 5750 5750
5809 5817 5804 5801 5797 5802 5827 5840 5831 5836 5838 5835 5831 5831 5819 5809 5813 5811 5811 5811 5806 5799 5789 5783 5780 5777 5774 5771 5768 5766 5764 5762 5761 5760 5759 5758 5756 5755 5755 5754 5753 5752 5750 5749 5748 5747 5745 5745 5745
5808 5809 5806 5804 5809 5835 5832 5834 5839 5834 5834 5840 5831 5813 5812 5817 5815 5813 5811 5808 5802 5795 5786 5780 5777 5774 5771 5768 5766 5763 5761 5758 5757 5756 5754 5753 5751 5750 5750 5749 5749 5748 5746 5744 5742 5741 5739 5738 5738
5810 5804 5796 5804 5830 5844 5843 5842 5841 5829 5824 5829 5824 5800 5797 5813 5818 5814 5811 5806 5801 5794 5785 5778 5774 5770 5767 5764 5762 5760 5758 5756 5753 5751 5750 5748 5746 5745 5744 5744 5743 5742 5740 5738 5736 5735 5734 5732 5731
5805 5806 5797 5812 5832 5838 5843 5846 5841 5827 5824 5827 5819 5801 5797 5810 5810 5812 5812 5807 5803 5793 5783 5774 5770 5767 5764 5761 5758 5756 5754 5752 5749 5747 5745 5743 5741 5740 5739 5738 5737 5736 5734 5732 5730 5728 5727 5726 5726
5802 5800 5806 5832 5830 5830 5840 5847 5837 5829 5825 5827 5828 5800 5796 5805 5812 5817 5814 5809 5802 5792 5781 5773 5767 5764 5760 5757 5755 5753 5750 5747 5745 5743 5740 5739 5737 5735 5734 5733 5732 5731 5729 5727 5724 5722 5721 5720 5720
5819 5807 5813 5835 5828 5828 5841 5844 5841 5832 5824 5837 5834 5800 5790 5804 5816 5818 5812 5806 5798 5789 5779 5773 5766 5762 5759 5755 5752 5749 5746 5743 5740 5738 5736 5734 5732 5730 5729 5727 5726 5724 5723 5721 5719 5717 5716 5714 5715
5827 5803 5805 5830 5828 5829 5843 5838 5840 5845 5837 5834 5829 5814 5809 5814 5817 5812 5802 5794 5788 5781 5773 5772 5768 5765 5761 5755 5749 5746 5742 5739 5736 5733 5731 5729 5727 5726 5724 5721 5719 5717 5716 5715 5714 5712 5711 5710 5711
5822 5800 5821 5838 5843 5837 5842 5839 5837 5835 5827 5823 5816 5811 5809 5809 5810 5804 5791 5779 5772 5772 5771 5770 5769 5765 5761 5755 5748 5744 5741 5736 5733 5731 5728 5724 5722 5721 5720 5716 5713 5711 5710 5709 5709 5708 5706 5706 5707
5822 5815 5828 5839 5846 5843 5839 5837 5841 5830 5814 5814 5805 5800 5800 5798 5803 5800 5789 5779 5772 5772 5773 5774 5771 5766 5761 5756 5749 5745 5742 5736 5733 5729 5725 5722 5720 5717 5714 5710 5707 5706 5705 5704 5704 5703 5703 5703 5704
5818 5825 5828 5832 5839 5835 5837 5839 5833 5830 5824 5830 5824 5811 5804 5802 5805 5801 5789 5783 5782 5779 5775 5772 5768 5761 5756 5753 5748 5744 5741 5736 5731 5726 5722 5720 5717 5715 5713 5709 5706 5704 5702 5702 5701 5701 5701 5699 5698
5815 5819 5828 5830 5831 5832 5834 5832 5831 5832 5841 5840 5831 5818 5807 5807 5810 5806 5800 5794 5789 5781 5773 5768 5763 5755 5750 5746 5744 5740 5735 5731 5726 5723 5717 5715 5713 5710 5707 5704 5701 5700 5699 5696 5693 5694 5693 5691 5690
5819 5820 5825 5826 5823 5828 5820 5820 5825 5829 5840 5836 5827 5819 5813 5808 5806 5800 5797 5791 5787 5778 5769 5762 5756 5750 5745 5740 5737 5734 5730 5725 5722 5716 5711 5708 5706 5703 5700 5695 5692 5691 5690 5688 5685 5684 5683 5681 5681
5815 5805 5808 5813 5817 5822 5817 5802 5813 5833 5834 5828 5823 5818 5811 5806 5804 5796 5792 5786 5778 5768 5761 5754 5749 5744 5741 5737 5734 5731 5726 5722 5716 5708 5703 5699 5696 5693 5690 5688 5685 5684 5682 5679 5676 5673 5672 5670 5669
5800 5786 5778 5801 5815 5820 5805 5784 5814 5835 5830 5820 5818 5816 5807 5801 5798 5793 5788 5779 5761 5745 5734 5737 5743 5738 5734 5731 5729 5726 5722 5716 5711 5705 5698 5692 5688 5684 5680 5678 5677 5675 5672 5669 5666 5664 5660 5658 5656
5777 5770 5775 5796 5821 5821 5805 5788 5810 5824 5820 5812 5812 5813 5803 5793 5787 5782 5774 5761 5744 5726 5715 5719 5727 5727 5725 5722 5720 5716 5711 5707 5704 5699 5694 5687 5680 5676 5671 5668 5666 5665 5662 5658 5655 5650 5646 5642 5640
5766 5777 5786 5794 5818 5818 5802 5795 5803 5812 5808 5804 5805 5805 5791 5777 5770 5767 5762 5748 5734 5721 5713 5712 5712 5713 5713 5712 5709 5706 5702 5697 5694 5690 5684 5679 5672 5666 5662 5658 5654 5652 5649 5644 5639 5635 5633 5629 5625
5781 5782 5786 5806 5825 5810 5793 5788 5793 5799 5796 5793 5794 5792 5776 5766 5764 5759 5751 5740 5729 5717 5708 5703 5701 5701 5701 5698 5695 5691 5687 5684 5681 5678 5674 5668 5662 5655 5649 5646 5641 5637 5634 5629 5624 5621 5617 5614 5611
5782 5776 5780 5795 5811 5798 5783 5779 5785 5784 5781 5780 5778 5772 5767 5759 5754 5749 5740 5732 5722 5712 5704 5699 5694 5691 5688 5685 5681 5678 5674 5671 5667 5663 5659 5654 5648 5642 5638 5632 5627 5623 5618 5614 5610 5604 5599 5598 5596
5773 5768 5771 5779 5796 5795 5774 5764 5769 5770 5771 5769 5768 5764 5758 5750 5741 5736 5730 5722 5715 5706 5700 5695 5689 5682 5677 5673 5670 5666 5661 5655 5650 5645 5640 5636 5632 5626 5623 5617 5612 5607 5602 5597 5593 5587 5582 5580 5580
5759 5773 5774 5775 5771 5771 5768 5745 5757 5753 5749 5749 5750 5747 5742 5737 5729 5723 5717 5710 5704 5698 5693 5686 5680 5673 5667 5662 5657 5651 5643 5636 5632 5628 5624 5621 5616 5611 5606 5600 5595 5590 5584 5579 5575 5571 5563 5558 5559
5764 5779 5777 5775 5765 5760 5771 5755 5749 5744 5729 5729 5731 5729 5726 5722 5715 5708 5702 5698 5693 5689 5683 5676 5669 5662 5656 5650 5643 5637 5629 5624 5620 5616 5612 5607 5602 5596 5590 5583 5576 5570 5564 5559 5554 5550 5545 5540 5536
5773 5771 5768 5766 5758 5736 5754 5753 5746 5735 5724 5719 5718 5716 5714 5709 5704 5697 5692 5687 5682 5678 5671 5664 5656 5649 5643 5637 5631 5624 5617 5611 5607 5603 5598 5593 5586 5580 5573 5565 5556 5549 5543 5537 5533 5529 5525 5520 5516
5764 5746 5726 5720 5722 5730 5761 5755 5746 5741 5732 5723 5713 5709 5707 5703 5697 5689 5682 5675 5669 5663 5657 5651 5643 5636 5630 5624 5618 5611 5605 5600 5595 5589 5582 5574 5568 5561 5553 5543 5536 5529 5523 5517 5513 5509 5505 5501 5498
5750 5742 5719 5709 5718 5736 5750 5734 5717 5735 5731 5722 5713 5708 5703 5698 5691 5682 5673 5666 5658 5650 5643 5636 5629 5623 5618 5612 5605 5599 5593 5587 5579 5570 5561 5553 5546 5539 5530 5523 5515 5508 5503 5499 5495 5492 5491 5489 5486
5746 5742 5748 5732 5730 5725 5731 5705 5706 5717 5712 5708 5705 5701 5696 5690 5682 5673 5664 5656 5648 5639 5631 5624 5617 5610 5605 5598 5592 5586 5578 5570 5561 5552 5543 5534 5525 5517 5510 5502 5496 5491 5488 5485 5484 5483 5482 5481 5479
5755 5752 5743 5727 5708 5705 5727 5722 5704 5701 5699 5698 5695 5691 5686 5681 5673 5663 5655 5647 5638 5631 5622 5614 5606 5599 5592 5585 5577 5570 5561 5552 5544 5535 5526 5516 5508 5501 5496 5491 5486 5483 5481 5480 5478 5477 5476 5475 5474
5744 5737 5732 5729 5730 5712 5706 5714 5724 5708 5700 5692 5687 5684 5679 5673 5663 5654 5646 5637 5629 5620 5611 5602 5594 5586 5577 5570 5561 5553 5545 5537 5529 5521 5513 5506 5499 5493 5489 5485 5482 5479 5477 5475 5473 5471 5469 5469 5468
5746 5741 5732 5710 5710 5720 5715 5700 5723 5712 5701 5690 5682 5678 5674 5666 5656 5646 5636 5626 5616 5606 5597 5588 5580 5571 5563 5555 5547 5539 5531 5523 5517 5511 5505 5499 5494 5489 5485 5481 5478 5475 5472 5468 5464 5462 5460 5460 5462